Time,TemperatureF,DewpointF,PressureIn,WindDirection,WindDirectionDegrees,WindSpeedMPH,WindSpeedGustMPH,Humidity,HourlyPrecipIn,Conditions,Clouds,dailyrainin,SoftwareType,DateUTC
2013-03-16 00:12:00,60.0,56.0,-100.00,SSW,208,9.0,15.0,87,0.00,,,0.00,,2013-03-16 05:12:00,
2013-03-16 00:22:00,60.0,56.0,-100.00,SSW,208,9.0,15.0,87,0.00,,,0.00,,2013-03-16 05:22:00,
2013-03-16 00:32:00,60.0,56.0,-100.00,SSW,208,9.0,15.0,87,0.00,,,0.00,,2013-03-16 05:32:00,
2013-03-16 00:42:00,60.0,56.0,-100.00,SSW,208,9.0,15.0,87,0.00,,,0.00,,2013-03-16 05:42:00,
2013-03-16 01:12:00,60.0,57.0,-100.00,SSW,202,9.0,16.0,89,0.00,,,0.00,,2013-03-16 06:12:00,
2013-03-16 01:22:00,60.0,57.0,-100.00,SSW,202,9.0,16.0,89,0.00,,,0.00,,2013-03-16 06:22:00,
2013-03-16 01:32:00,60.0,57.0,-100.00,SSW,202,9.0,16.0,89,0.00,,,0.00,,2013-03-16 06:32:00,
2013-03-16 01:42:00,60.0,57.0,-100.00,SSW,202,9.0,16.0,89,0.00,,,0.00,,2013-03-16 06:42:00,
2013-03-16 02:12:00,59.0,56.0,-100.00,SSW,209,8.0,14.0,91,0.00,,,0.00,,2013-03-16 07:12:00,
2013-03-16 02:22:00,59.0,56.0,-100.00,SSW,209,8.0,14.0,91,0.00,,,0.00,,2013-03-16 07:22:00,
2013-03-16 02:32:00,59.0,56.0,-100.00,SSW,209,8.0,14.0,91,0.00,,,0.00,,2013-03-16 07:32:00,
2013-03-16 02:42:00,59.0,56.0,-100.00,SSW,209,8.0,14.0,91,0.00,,,0.00,,2013-03-16 07:42:00,
2013-03-16 03:12:00,57.0,55.0,-100.00,SSW,207,6.0,9.0,94,0.00,,,0.00,,2013-03-16 08:12:00,
2013-03-16 03:23:00,57.0,55.0,-100.00,SSW,207,6.0,9.0,94,0.00,,,0.00,,2013-03-16 08:23:00,
2013-03-16 03:32:00,57.0,55.0,-100.00,SSW,207,6.0,9.0,94,0.00,,,0.00,,2013-03-16 08:32:00,
2013-03-16 03:42:00,57.0,55.0,-100.00,SSW,207,6.0,9.0,94,0.00,,,0.00,,2013-03-16 08:42:00,
2013-03-16 04:12:00,57.0,56.0,-100.00,SW,221,6.0,10.0,95,0.00,,,0.00,,2013-03-16 09:12:00,
2013-03-16 04:22:00,57.0,56.0,-100.00,SW,221,6.0,10.0,95,0.00,,,0.00,,2013-03-16 09:22:00,
2013-03-16 04:33:00,57.0,56.0,-100.00,SW,221,6.0,10.0,95,0.00,,,0.00,,2013-03-16 09:33:00,
2013-03-16 04:42:00,57.0,56.0,-100.00,SW,221,6.0,10.0,95,0.00,,,0.00,,2013-03-16 09:42:00,
2013-03-16 05:12:00,56.0,55.0,-100.00,SSW,203,4.0,8.0,96,0.00,,,0.00,,2013-03-16 10:12:00,
2013-03-16 05:23:00,56.0,55.0,-100.00,SSW,203,4.0,8.0,96,0.00,,,0.00,,2013-03-16 10:23:00,
2013-03-16 05:32:00,56.0,55.0,-100.00,SSW,203,4.0,8.0,96,0.00,,,0.00,,2013-03-16 10:32:00,
2013-03-16 05:42:00,56.0,55.0,-100.00,SSW,203,4.0,8.0,96,0.00,,,0.00,,2013-03-16 10:42:00,
2013-03-16 06:12:00,55.0,54.0,-100.00,South,186,0.0,0.0,96,0.00,,,-99.99,,2013-03-16 11:12:00,
2013-03-16 06:22:00,55.0,54.0,-100.00,South,186,0.0,0.0,96,0.00,,,-99.99,,2013-03-16 11:22:00,
2013-03-16 06:32:00,55.0,54.0,-100.00,South,186,0.0,0.0,96,0.00,,,-99.99,,2013-03-16 11:32:00,
2013-03-16 06:42:00,55.0,54.0,-100.00,South,186,0.0,0.0,96,0.00,,,-99.99,,2013-03-16 11:42:00,
2013-03-16 07:12:00,56.0,55.0,-100.00,SSW,193,6.0,10.0,95,0.00,,,0.00,,2013-03-16 12:12:00,
2013-03-16 07:22:00,56.0,55.0,-100.00,SSW,193,6.0,10.0,95,0.00,,,0.00,,2013-03-16 12:22:00,
2013-03-16 07:32:00,56.0,55.0,-100.00,SSW,193,6.0,10.0,95,0.00,,,0.00,,2013-03-16 12:32:00,
2013-03-16 07:42:00,56.0,55.0,-100.00,SSW,193,6.0,10.0,95,0.00,,,0.00,,2013-03-16 12:42:00,
2013-03-16 08:12:00,57.0,55.0,-100.00,SSW,196,5.0,11.0,94,0.00,,,0.00,,2013-03-16 13:12:00,
2013-03-16 08:22:00,57.0,55.0,-100.00,SSW,196,5.0,11.0,94,0.00,,,0.00,,2013-03-16 13:22:00,
2013-03-16 08:32:00,57.0,55.0,-100.00,SSW,196,5.0,11.0,94,0.00,,,0.00,,2013-03-16 13:32:00,
2013-03-16 08:42:00,57.0,55.0,-100.00,SSW,196,5.0,11.0,94,0.00,,,0.00,,2013-03-16 13:42:00,
2013-03-16 09:12:00,60.0,56.0,-100.00,SSW,207,6.0,12.0,88,0.00,,,0.00,,2013-03-16 14:12:00,
2013-03-16 09:22:00,60.0,56.0,-100.00,SSW,207,6.0,12.0,88,0.00,,,0.00,,2013-03-16 14:22:00,
2013-03-16 09:32:00,60.0,56.0,-100.00,SSW,207,6.0,12.0,88,0.00,,,0.00,,2013-03-16 14:32:00,
2013-03-16 09:42:00,60.0,56.0,-100.00,SSW,207,6.0,12.0,88,0.00,,,0.00,,2013-03-16 14:42:00,
2013-03-16 10:12:00,65.0,58.0,-100.00,SW,215,9.0,14.0,77,0.00,,,0.00,,2013-03-16 15:12:00,
2013-03-16 10:22:00,65.0,58.0,-100.00,SW,215,9.0,14.0,77,0.00,,,0.00,,2013-03-16 15:22:00,
2013-03-16 10:33:00,65.0,58.0,-100.00,SW,215,9.0,14.0,77,0.00,,,0.00,,2013-03-16 15:33:00,
2013-03-16 10:43:00,65.0,58.0,-100.00,SW,215,9.0,14.0,77,0.00,,,0.00,,2013-03-16 15:43:00,
2013-03-16 11:12:00,68.0,57.0,-100.00,SW,228,11.0,22.0,67,0.00,,,-99.99,,2013-03-16 16:12:00,
2013-03-16 11:22:00,68.0,57.0,-100.00,SW,228,11.0,22.0,67,0.00,,,-99.99,,2013-03-16 16:22:00,
2013-03-16 11:33:00,68.0,57.0,-100.00,SW,228,11.0,22.0,67,0.00,,,-99.99,,2013-03-16 16:33:00,
2013-03-16 11:42:00,68.0,57.0,-100.00,SW,228,11.0,22.0,67,0.00,,,-99.99,,2013-03-16 16:42:00,
2013-03-16 12:13:00,72.0,54.0,-100.00,SW,232,11.0,19.0,54,0.00,,,0.00,,2013-03-16 17:13:00,
2013-03-16 12:23:00,72.0,54.0,-100.00,SW,232,11.0,19.0,54,0.00,,,0.00,,2013-03-16 17:23:00,
2013-03-16 12:32:00,72.0,54.0,-100.00,SW,232,11.0,19.0,54,0.00,,,0.00,,2013-03-16 17:32:00,
2013-03-16 12:42:00,72.0,54.0,-100.00,SW,232,11.0,19.0,54,0.00,,,0.00,,2013-03-16 17:42:00,
2013-03-16 13:13:00,73.0,52.0,-100.00,SW,229,11.0,19.0,48,0.00,,,0.00,,2013-03-16 18:13:00,
2013-03-16 13:23:00,73.0,52.0,-100.00,SW,229,11.0,19.0,48,0.00,,,0.00,,2013-03-16 18:23:00,
2013-03-16 13:33:00,73.0,52.0,-100.00,SW,229,11.0,19.0,48,0.00,,,0.00,,2013-03-16 18:33:00,
2013-03-16 13:42:00,73.0,52.0,-100.00,SW,229,11.0,19.0,48,0.00,,,0.00,,2013-03-16 18:42:00,
2013-03-16 14:12:00,76.0,51.0,-100.00,SSW,192,10.0,18.0,42,0.00,,,0.00,,2013-03-16 19:12:00,
2013-03-16 14:22:00,76.0,51.0,-100.00,SSW,192,10.0,18.0,42,0.00,,,0.00,,2013-03-16 19:22:00,
2013-03-16 14:32:00,76.0,51.0,-100.00,SSW,192,10.0,18.0,42,0.00,,,0.00,,2013-03-16 19:32:00,
2013-03-16 14:42:00,76.0,51.0,-100.00,SSW,192,10.0,18.0,42,0.00,,,0.00,,2013-03-16 19:42:00,
2013-03-16 15:12:00,78.0,50.0,-100.00,SW,225,9.0,20.0,38,0.00,,,0.00,,2013-03-16 20:12:00,
2013-03-16 15:22:00,78.0,50.0,-100.00,SW,225,9.0,20.0,38,0.00,,,0.00,,2013-03-16 20:22:00,
2013-03-16 15:32:00,78.0,50.0,-100.00,SW,225,9.0,20.0,38,0.00,,,0.00,,2013-03-16 20:32:00,
2013-03-16 15:42:00,78.0,50.0,-100.00,SW,225,9.0,20.0,38,0.00,,,0.00,,2013-03-16 20:42:00,
2013-03-16 16:12:00,78.0,50.0,-100.00,South,186,11.0,20.0,37,0.00,,,0.00,,2013-03-16 21:12:00,
2013-03-16 16:22:00,78.0,50.0,-100.00,South,186,11.0,20.0,37,0.00,,,0.00,,2013-03-16 21:22:00,
2013-03-16 16:33:00,78.0,50.0,-100.00,South,186,11.0,20.0,37,0.00,,,0.00,,2013-03-16 21:33:00,
2013-03-16 16:43:00,78.0,50.0,-100.00,South,186,11.0,20.0,37,0.00,,,0.00,,2013-03-16 21:43:00,
2013-03-16 17:12:00,78.0,50.0,-100.00,SSW,194,10.0,18.0,38,0.00,,,0.00,,2013-03-16 22:12:00,
2013-03-16 17:23:00,78.0,50.0,-100.00,SSW,194,10.0,18.0,38,0.00,,,0.00,,2013-03-16 22:23:00,
2013-03-16 17:33:00,78.0,50.0,-100.00,SSW,194,10.0,18.0,38,0.00,,,0.00,,2013-03-16 22:33:00,
2013-03-16 17:42:00,78.0,50.0,-100.00,SSW,194,10.0,18.0,38,0.00,,,0.00,,2013-03-16 22:42:00,
2013-03-16 18:13:00,76.0,51.0,-100.00,South,189,9.0,16.0,42,0.00,,,-99.99,,2013-03-16 23:13:00,
2013-03-16 18:22:00,76.0,51.0,-100.00,South,189,9.0,16.0,42,0.00,,,-99.99,,2013-03-16 23:22:00,
2013-03-16 18:33:00,76.0,51.0,-100.00,South,189,9.0,16.0,42,0.00,,,-99.99,,2013-03-16 23:33:00,
2013-03-16 18:42:00,76.0,51.0,-100.00,South,189,9.0,16.0,42,0.00,,,-99.99,,2013-03-16 23:42:00,
2013-03-16 19:12:00,73.0,53.0,-100.00,South,182,9.0,14.0,49,0.00,,,0.00,,2013-03-17 00:12:00,
2013-03-16 19:22:00,73.0,53.0,-100.00,South,182,9.0,14.0,49,0.00,,,0.00,,2013-03-17 00:22:00,
2013-03-16 19:32:00,73.0,53.0,-100.00,South,182,9.0,14.0,49,0.00,,,0.00,,2013-03-17 00:32:00,
2013-03-16 19:42:00,73.0,53.0,-100.00,South,182,9.0,14.0,49,0.00,,,0.00,,2013-03-17 00:42:00,
2013-03-16 20:12:00,69.0,53.0,-100.00,South,188,8.0,15.0,56,0.00,,,0.00,,2013-03-17 01:12:00,
2013-03-16 20:22:00,69.0,53.0,-100.00,South,188,8.0,15.0,56,0.00,,,0.00,,2013-03-17 01:22:00,
2013-03-16 20:32:00,69.0,53.0,-100.00,South,188,8.0,15.0,56,0.00,,,0.00,,2013-03-17 01:32:00,
2013-03-16 20:42:00,69.0,53.0,-100.00,South,188,8.0,15.0,56,0.00,,,0.00,,2013-03-17 01:42:00,
2013-03-16 21:13:00,66.0,54.0,-100.00,South,188,6.0,10.0,65,0.00,,,0.00,,2013-03-17 02:13:00,
2013-03-16 21:22:00,66.0,54.0,-100.00,South,188,6.0,10.0,65,0.00,,,0.00,,2013-03-17 02:22:00,
2013-03-16 21:33:00,66.0,54.0,-100.00,South,188,6.0,10.0,65,0.00,,,0.00,,2013-03-17 02:33:00,
2013-03-16 21:42:00,66.0,54.0,-100.00,South,188,6.0,10.0,65,0.00,,,0.00,,2013-03-17 02:42:00,
2013-03-16 22:12:00,65.0,55.0,-100.00,South,191,7.0,12.0,69,0.00,,,0.00,,2013-03-17 03:12:00,
2013-03-16 22:22:00,65.0,55.0,-100.00,South,191,7.0,12.0,69,0.00,,,0.00,,2013-03-17 03:22:00,
2013-03-16 22:33:00,65.0,55.0,-100.00,South,191,7.0,12.0,69,0.00,,,0.00,,2013-03-17 03:33:00,
2013-03-16 22:43:00,65.0,55.0,-100.00,South,191,7.0,12.0,69,0.00,,,0.00,,2013-03-17 03:43:00,
2013-03-16 23:13:00,63.0,56.0,-100.00,South,181,7.0,11.0,78,0.00,,,0.00,,2013-03-17 04:13:00,
2013-03-16 23:23:00,63.0,56.0,-100.00,South,181,7.0,11.0,78,0.00,,,0.00,,2013-03-17 04:23:00,
2013-03-16 23:32:00,63.0,56.0,-100.00,South,181,7.0,11.0,78,0.00,,,0.00,,2013-03-17 04:32:00,
2013-03-16 23:42:00,63.0,56.0,-100.00,South,181,7.0,11.0,78,0.00,,,0.00,,2013-03-17 04:42:00,